TimeCDT,TemperatureF,Dew PointF,Humidity,Sea Level PressureIn,VisibilityMPH,Wind Direction,Wind SpeedMPH,Gust SpeedMPH,PrecipitationIn,Events,Conditions,WindDirDegrees,DateUTC
12:15 AM,46.4,35.6,66,30.27,10.0,NNE,9.2,17.3,N/A,,Overcast,20,2012-10-07 05:15:00
12:35 AM,46.4,37.4,71,30.26,10.0,North,11.5,17.3,N/A,,Overcast,10,2012-10-07 05:35:00
12:55 AM,46.4,35.6,66,30.26,10.0,NNE,9.2,-,N/A,,Overcast,20,2012-10-07 05:55:00
1:15 AM,46.4,35.6,66,30.27,10.0,NNE,8.1,16.1,N/A,,Overcast,20,2012-10-07 06:15:00
1:35 AM,46.4,35.6,66,30.26,10.0,NNE,6.9,-,N/A,,Overcast,30,2012-10-07 06:35:00
1:55 AM,46.4,37.4,71,30.27,10.0,North,6.9,16.1,N/A,,Overcast,10,2012-10-07 06:55:00
2:15 AM,46.4,37.4,71,30.27,10.0,NNE,6.9,-,N/A,,Overcast,30,2012-10-07 07:15:00
2:35 AM,46.4,37.4,71,30.28,10.0,NNE,8.1,-,N/A,,Overcast,20,2012-10-07 07:35:00
2:55 AM,46.4,37.4,71,30.27,10.0,NNE,5.8,-,N/A,,Overcast,20,2012-10-07 07:55:00
3:15 AM,46.4,37.4,71,30.27,10.0,North,8.1,-,N/A,,Overcast,10,2012-10-07 08:15:00
3:55 AM,46.4,37.4,71,30.27,10.0,North,8.1,-,N/A,,Overcast,10,2012-10-07 08:55:00
4:15 AM,46.4,35.6,66,30.27,10.0,NNE,8.1,-,N/A,,Overcast,20,2012-10-07 09:15:00
4:35 AM,46.4,35.6,66,30.27,10.0,North,11.5,16.1,N/A,,Overcast,10,2012-10-07 09:35:00
4:55 AM,46.4,35.6,66,30.27,10.0,North,12.7,19.6,N/A,,Overcast,10,2012-10-07 09:55:00
5:15 AM,46.4,37.4,71,30.27,10.0,NNE,11.5,16.1,N/A,,Overcast,20,2012-10-07 10:15:00
5:35 AM,46.4,37.4,71,30.27,10.0,North,10.4,17.3,N/A,,Overcast,10,2012-10-07 10:35:00
5:55 AM,46.4,37.4,71,30.28,10.0,NNE,6.9,-,N/A,,Overcast,20,2012-10-07 10:55:00
6:15 AM,46.4,37.4,71,30.28,10.0,North,9.2,-,N/A,,Overcast,10,2012-10-07 11:15:00
6:35 AM,46.4,37.4,71,30.28,10.0,NNE,6.9,-,N/A,,Overcast,30,2012-10-07 11:35:00
6:55 AM,46.4,37.4,71,30.29,10.0,NNE,6.9,-,N/A,,Overcast,20,2012-10-07 11:55:00
7:15 AM,46.4,35.6,66,30.29,10.0,North,8.1,-,N/A,,Overcast,10,2012-10-07 12:15:00
7:35 AM,46.4,35.6,66,30.29,10.0,North,5.8,-,N/A,,Overcast,10,2012-10-07 12:35:00
7:55 AM,46.4,35.6,66,30.30,10.0,NNE,5.8,-,N/A,,Overcast,30,2012-10-07 12:55:00
8:15 AM,46.4,35.6,66,30.30,10.0,NE,5.8,-,N/A,,Overcast,40,2012-10-07 13:15:00
8:35 AM,46.4,35.6,66,30.30,10.0,NNE,8.1,-,N/A,,Overcast,20,2012-10-07 13:35:00
8:55 AM,46.4,35.6,66,30.31,10.0,NNE,6.9,-,N/A,,Overcast,20,2012-10-07 13:55:00
9:15 AM,48.2,35.6,62,30.30,10.0,NNE,6.9,-,N/A,,Overcast,20,2012-10-07 14:15:00
9:35 AM,48.2,35.6,62,30.30,10.0,ENE,6.9,-,N/A,,Overcast,60,2012-10-07 14:35:00
9:55 AM,50.0,35.6,58,30.31,10.0,NNE,5.8,-,N/A,,Overcast,20,2012-10-07 14:55:00
10:15 AM,50.0,35.6,58,30.32,10.0,NNE,4.6,-,N/A,,Overcast,30,2012-10-07 15:15:00
10:35 AM,50.0,35.6,58,30.32,10.0,NNE,5.8,-,N/A,,Overcast,20,2012-10-07 15:35:00
10:55 AM,50.0,35.6,58,30.32,10.0,North,6.9,-,N/A,,Overcast,10,2012-10-07 15:55:00
11:15 AM,50.0,33.8,54,30.32,10.0,NNE,4.6,-,N/A,,Overcast,20,2012-10-07 16:15:00
11:35 AM,50.0,33.8,54,30.32,10.0,North,5.8,-,N/A,,Overcast,360,2012-10-07 16:35:00
11:55 AM,50.0,33.8,54,30.30,10.0,NNE,4.6,-,N/A,,Overcast,30,2012-10-07 16:55:00
12:15 PM,50.0,33.8,54,30.29,10.0,North,5.8,-,N/A,,Overcast,10,2012-10-07 17:15:00
12:35 PM,50.0,32.0,50,30.29,10.0,NNE,4.6,-,N/A,,Overcast,30,2012-10-07 17:35:00
12:55 PM,50.0,33.8,54,30.28,10.0,North,6.9,-,N/A,,Overcast,360,2012-10-07 17:55:00
1:35 PM,51.8,33.8,50,30.27,10.0,North,6.9,-,N/A,,Overcast,10,2012-10-07 18:35:00
1:55 PM,51.8,32.0,47,30.25,10.0,North,8.1,-,N/A,,Overcast,10,2012-10-07 18:55:00
2:15 PM,51.8,32.0,47,30.24,10.0,NNE,5.8,-,N/A,,Overcast,20,2012-10-07 19:15:00
2:35 PM,51.8,32.0,47,30.24,10.0,NNE,6.9,-,N/A,,Overcast,20,2012-10-07 19:35:00
2:55 PM,51.8,32.0,47,30.23,10.0,NNE,6.9,-,N/A,,Overcast,20,2012-10-07 19:55:00
3:15 PM,51.8,32.0,47,30.23,10.0,North,6.9,-,N/A,,Overcast,10,2012-10-07 20:15:00
3:35 PM,51.8,32.0,47,30.22,10.0,NNE,6.9,-,N/A,,Overcast,20,2012-10-07 20:35:00
3:55 PM,51.8,32.0,47,30.21,10.0,NNE,5.8,-,N/A,,Overcast,20,2012-10-07 20:55:00
4:15 PM,51.8,32.0,47,30.21,10.0,NNE,6.9,-,N/A,,Overcast,20,2012-10-07 21:15:00
4:35 PM,51.8,33.8,50,30.21,10.0,North,5.8,-,N/A,,Overcast,10,2012-10-07 21:35:00
4:55 PM,51.8,33.8,50,30.21,10.0,North,5.8,-,N/A,,Overcast,10,2012-10-07 21:55:00
5:15 PM,50.0,35.6,58,30.21,10.0,NNE,4.6,-,N/A,,Overcast,20,2012-10-07 22:15:00
5:35 PM,50.0,33.8,54,30.20,10.0,NE,5.8,-,N/A,,Overcast,40,2012-10-07 22:35:00
5:55 PM,50.0,33.8,54,30.21,10.0,NE,3.5,-,N/A,,Overcast,40,2012-10-07 22:55:00
6:15 PM,50.0,33.8,54,30.22,10.0,NNW,3.5,-,N/A,,Overcast,340,2012-10-07 23:15:00
6:35 PM,50.0,35.6,58,30.22,10.0,NNW,5.8,-,N/A,,Overcast,330,2012-10-07 23:35:00
6:55 PM,50.0,35.6,58,30.23,10.0,NNW,3.5,-,N/A,,Overcast,330,2012-10-07 23:55:00
7:15 PM,50.0,35.6,58,30.23,10.0,NW,4.6,-,N/A,,Overcast,320,2012-10-08 00:15:00
7:35 PM,50.0,35.6,58,30.23,10.0,NW,5.8,-,N/A,,Overcast,310,2012-10-08 00:35:00
7:55 PM,50.0,35.6,58,30.24,10.0,NNW,5.8,-,N/A,,Overcast,340,2012-10-08 00:55:00
8:15 PM,50.0,35.6,58,30.24,10.0,NNW,8.1,-,N/A,,Overcast,340,2012-10-08 01:15:00
8:35 PM,50.0,35.6,58,30.24,10.0,NNW,9.2,-,N/A,,Overcast,330,2012-10-08 01:35:00
8:55 PM,50.0,35.6,58,30.24,10.0,NNW,5.8,-,N/A,,Overcast,340,2012-10-08 01:55:00
9:15 PM,48.2,35.6,62,30.24,10.0,NNW,5.8,-,N/A,,Overcast,340,2012-10-08 02:15:00
9:35 PM,48.2,35.6,62,30.24,10.0,NW,3.5,-,N/A,,Overcast,320,2012-10-08 02:35:00
9:55 PM,48.2,37.4,66,30.25,10.0,Calm,Calm,-,N/A,,Overcast,0,2012-10-08 02:55:00
10:15 PM,48.2,37.4,66,30.26,10.0,Calm,Calm,-,N/A,,Overcast,0,2012-10-08 03:15:00
10:35 PM,48.2,37.4,66,30.26,10.0,Calm,Calm,-,N/A,,Overcast,0,2012-10-08 03:35:00
10:55 PM,48.2,35.6,62,30.26,10.0,Calm,Calm,-,N/A,,Overcast,0,2012-10-08 03:55:00
11:15 PM,50.0,35.6,58,30.25,10.0,Calm,Calm,-,N/A,,Overcast,0,2012-10-08 04:15:00
11:35 PM,50.0,37.4,62,30.25,10.0,Calm,Calm,-,N/A,,Overcast,0,2012-10-08 04:35:00
11:55 PM,48.2,37.4,66,30.24,10.0,Calm,Calm,-,N/A,,Overcast,0,2012-10-08 04:55:00